カタログに戻る

ONEWEB-0213

運用中通信PO
NORAD 48790·PAYLOAD·🇬🇧 United Kingdom

打ち上げ May 28, 2021 から Vostochny Cosmodrome

Loading…

次のパス (今後24時間)

TLE

最新Source: CelesTrak SupGP

元期: Sep 14, 2026, 14:54 UTC

1 48790C 21045Z   26257.62135833 -.00002894  00000+0 -76957-2 0  2570
2 48790  87.8986 241.3666 0002181  79.6052  20.5021 13.15549861    19

AllMySatでONEWEB-0213をリアルタイム追跡

Download on the App Store